Location: Newark
(26.0814°N, 97.8289°W)
Time: 20:41:36
(UTC+00:00)

LightSail 2 - Pass Details

Date: 30 January 2020
Orbit: 698 x 724 km, 24.0° (Epoch: 26 February)

Event Time Altitude Azimuth Distance (km) Brightness Sun altitude
Rises 01:09:54 0° 268° (W) 3,066 10.2 -13.3°
Reaches altitude 10° 01:12:39 10° 255° (WSW) 2,152 9.1 -13.9°
Maximum altitude 01:16:48 25° 200° (SSW) 1,385 7.0 -14.8°
Drops below altitude 10° 01:20:58 10° 145° (SE) 2,162 7.4 -15.7°
Enters shadow 01:22:28 - 137° (SE) 2,644 7.8 -16.0°
